Weather History for KGNA - March, 2013

Change the Weather History Date:

Thursday, March 21, 2013

  Actual Average (KCKC) Record (KCKC)
Temperature  
Mean Temperature 20 °F -  
Max Temperature 30 °F 32 °F 75 °F (1997)
Min Temperature 10 °F 15 °F -4 °F (2002)
Degree Days  
Heating Degree Days 45    
Moisture  
Dew Point 10 °F    
Average Humidity 60    
Maximum Humidity 76    
Minimum Humidity 41    
Precipitation  
Precipitation 0.00 in - - ()
Sea Level Pressure  
Sea Level Pressure 30.08 in    
Wind  
Wind Speed 5 mph (WNW)    
Max Wind Speed 14 mph    
Max Gust Speed 21 mph    
Averages and records for this station are not official NWS values.
T = Trace of Precipitation, MM = Missing Value Source: NWS Daily Summary

Daily Weather History Graph

Daily Weather History Graph

Search for Another Location

Airport or City:

Trip Planner

Search our weather history database for the weather conditions in past years. The results will help you decide how hot, cold, wet, or windy it might be!

Date:

Astronomy

Mar. 21, 2013 Rise Set
Actual Time 7:01 AM CDT 7:15 PM CDT
Civil Twilight 6:30 AM CDT 7:46 PM CDT
Nautical Twilight 5:54 AM CDT 8:23 PM CDT
Astronomical Twilight 5:17 AM CDT 9:00 PM CDT
Moon 1:25 PM CDT (3/21) 3:45 AM CDT (3/21)
Length of Visible Light 13h 15m
Length of Day
12h 14m
Waxing Gibbous, 69% of the Moon is Illuminated
Mar 21
Waxing Gibbous
Mar 27
Full
Apr 2
Last Quarter
Apr 10
New
Apr 18
First Quarter

Hourly Weather History & Observations

Time (CDT) Temp. Windchill Dew Point Humidity Pressure Visibility Wind Dir Wind Speed Gust Speed Precip Events Conditions
12:56 AM 18.0 °F 9.8 °F 7.0 °F 62% 30.10 in - North 5.8 mph 20.7 mph N/A   Unknown
3:56 AM 17.1 °F 10.0 °F 6.1 °F 62% 30.09 in - Variable 4.6 mph - N/A   Unknown
4:56 AM 16.0 °F - 6.1 °F 65% 30.09 in - Calm Calm - N/A   Unknown
5:56 AM 14.0 °F - 5.0 °F 67% 30.10 in - Calm Calm - N/A   Unknown
6:56 AM 10.0 °F - 3.9 °F 76% 30.10 in - Calm Calm - N/A   Unknown
7:56 AM 15.1 °F - 6.1 °F 68% 30.11 in - Calm Calm - N/A   Unknown
8:56 AM 19.0 °F 9.0 °F 7.0 °F 59% 30.11 in - North 8.1 mph - N/A   Unknown
9:56 AM 21.0 °F 12.4 °F 7.0 °F 55% 30.10 in - WNW 6.9 mph - N/A   Unknown
10:56 AM 24.1 °F 17.0 °F 7.0 °F 48% 30.09 in - Variable 5.8 mph - N/A   Unknown
11:56 AM 26.1 °F - 8.1 °F 47% 30.07 in - Calm Calm - N/A   Unknown
12:56 PM 24.1 °F 13.7 °F 12.0 °F 60% 30.07 in - SSW 10.4 mph - N/A   Unknown
1:56 PM 26.1 °F 17.6 °F 12.9 °F 58% 30.07 in - SW 8.1 mph - N/A   Unknown
2:56 PM 28.0 °F 18.1 °F 16.0 °F 61% 30.06 in - SW 11.5 mph - N/A   Unknown
3:56 PM 28.9 °F 18.6 °F 19.0 °F 67% 30.05 in - WSW 12.7 mph - N/A   Unknown
4:56 PM 30.0 °F 21.1 °F 19.9 °F 66% 30.06 in - WSW 10.4 mph - N/A   Unknown
5:56 PM 28.0 °F 18.1 °F 21.0 °F 75% 30.06 in - WSW 11.5 mph 18.4 mph N/A   Unknown
6:56 PM 28.0 °F 17.0 °F 21.0 °F 75% 30.06 in - WSW 13.8 mph - N/A   Unknown
7:56 PM 23.0 °F - 16.0 °F 74% 30.08 in - Calm Calm - N/A   Unknown
8:56 PM 23.0 °F 15.8 °F 9.0 °F 55% 30.08 in - North 5.8 mph - N/A   Unknown
9:56 PM 27.0 °F 17.3 °F 6.1 °F 41% 30.06 in - NNW 10.4 mph - N/A   Unknown
10:56 PM 26.1 °F 16.8 °F 6.1 °F 43% 30.07 in - NNW 9.2 mph - N/A   Unknown
11:56 PM 25.0 °F 16.3 °F 7.0 °F 46% 30.08 in - North 8.1 mph - N/A   Unknown